STARLINK-33807, 63518

Orbit data source: Space-Track

STARLINK-33807, 63518 is a payload satellite owned by SpaceX/Seattle (US) in LEO that was launched on Mon, 07 Apr 2025 UTC via an FALCON 9 launch vehicle from the Air Force Western Test Range (AFWTR). Payload-class satellites include a variety of spacecraft equipped with specific instruments for various scientific and technological missions. These include communications satellites like Starlink; space stations such as the ISS; scientific satellites like the Hubble; Earth observation satellites from companies like Planet Labs, Umbra, and HawkEye 360; GPS; miniature CubeSats for education and research; and military/defense satellites.

Loading next visibility...
Identifier
63518, 2025-071AB
Orbit
LEO
Country
Flag of USUS
Related business
Manufacturer
SpaceX/Seattle
Mission
Operational Commercial Communications
Bus & Motor
STARLINK V2MO, Unknown motor
Mass
575 kg wet, ~530 kg dry
Launch date (UTC)
2025-04-07 (7 months ago)
Launch vehicle
FALCON 9
Launch site
Air Force Western Test Range (AFWTR)
Object type
Payload
Rocket body
Debris
Shape & HBR
Box + 2 Pan, 17.7 m
Radar Cross Section
36.964 m², Large (>1 m²)

Expand to show TLE details & history
Last TLE update: 1 day ago

TLE from 1 day ago
0 STARLINK-33807
1 63518U 25071AB  25296.62574645  .00037339  00000-0  12669-2 0  9992
2 63518  53.1600  58.7441 0001130  93.5691 266.5439 15.30188043 31751
Epoch: 2025-10-23T15:01Z
TLE epoch observation values (Epoch: 2025-10-23T15:01:04.493Z)
Latitude
-0.00001°
Longitude
161.19306°
Altitude
476.197 km
Speed
7.629 km/s
True Right ascension
03h 54m 58s
True Declination
0° 00' 00"
Sunlit
Object was in full shadow at epoch
Visualization orbit readout
Latitude
Unknown
Longitude
Unknown
Altitude
Unknown
Speed
Unknown
Apparent Right ascension
Unknown
Apparent Declination
Unknown
Sunlit
N/A
Visualization observer readout
Local Sidereal Time
14:25:47
Azimuth
Unknown
Elevation
Unknown
Doppler factor
Unknown
Orbital elements
Apogee altitude
476.282 km
Perigee altitude
474.733 km
Semi-major axis
6,853.644 km
Eccentricity
0.00011
Inclination
53.16°
RAAN
58.7441°
Arg. of periapsis
93.5691°
True anomaly
266.53097°
Mean anomaly
266.5439°
Eccentric anomaly
266.53744°
Mean motion
3.82526 °/min
Orbital period
94.11 mins
BSTAR
0.0012669
Loading maneuver chart data...
Computing Atmospheric mass density...
Loading historical data...
Loading historical data...
Loading historical data...
Loading historical data...
Loading historical data...
Loading historical data...
Loading historical data...

Documentation

Showing up to 5 results
|